Date String (YYYY-MM-DD hh:mm:ss) UTC,Instrument flags,Ambient pressure (hPa),Sample flow (lpm),Bypass flow (lpm),Sample temperature (°C),Ambient temperature (°C),ASC tube jacket temperature (°C),LED temperature (°C),Box temperature (°C),Sample RH (%),Span deviation,Mass concentration (μg/m³),Mass concentration (μg/m³),Mass concentration (μg/m³)
DateTimeUTC,F1_M11,P_M11,Q1_M11,Q2_M11,T1_M11,T2_M11,T3_M11,T4_M11,T5_M11,U1_M11,ZSPAN_M11,X0_M11,X2_M11,X1_M11
2022-10-02 16:00:00,,0830.1,5.00,0.00,29.6,28.1,00.0,38.3,31.4,25.6,0000.0,0007.34,0003.69,0003.24
2022-10-02 16:01:00,,0830.1,5.00,0.00,29.6,28.2,00.0,38.3,31.4,25.3,0000.0,0007.01,0003.61,0003.19
2022-10-02 16:02:00,,0830.1,5.00,0.00,29.6,28.2,00.0,38.3,31.4,25.1,0000.0,0006.78,0003.55,0003.15
2022-10-02 16:03:00,,0830.0,4.99,0.00,29.6,28.2,00.0,38.3,31.4,25.4,0000.0,0006.95,0003.53,0003.14
2022-10-02 16:04:00,,0830.0,5.01,0.00,29.6,28.2,00.0,38.3,31.4,23.6,0000.0,0006.81,0003.49,0003.10
2022-10-02 16:05:00,,0829.9,5.00,0.00,29.6,28.2,00.0,38.3,31.4,22.9,0000.0,0006.63,0003.44,0003.03
2022-10-02 16:06:00,,0829.9,4.99,0.00,29.6,28.2,00.0,38.3,31.4,22.6,0000.0,0006.33,0003.37,0002.94
2022-10-02 16:07:00,,0830.0,4.99,0.00,29.6,28.2,00.0,38.3,31.4,24.2,0000.0,0006.08,0003.30,0002.83
2022-10-02 16:08:00,,0830.1,5.01,0.00,29.6,28.2,00.0,38.3,31.4,24.1,0000.0,0006.21,0003.22,0002.72
2022-10-02 16:09:00,,0830.1,4.98,0.00,29.6,28.2,00.0,38.3,31.4,24.4,0000.0,0006.03,0003.15,0002.64
2022-10-02 16:10:00,,0830.2,5.01,0.00,29.6,28.2,00.0,38.3,31.5,23.8,0000.0,0005.95,0003.08,0002.55
2022-10-02 16:11:00,,0830.1,5.01,0.00,29.6,28.2,00.0,38.4,31.4,24.7,0000.0,0006.09,0003.14,0002.58
2022-10-02 16:12:00,,0830.1,5.00,0.00,29.6,28.0,00.0,38.4,31.4,24.5,0000.0,0007.35,0003.20,0002.68
2022-10-02 16:13:00,,0830.2,4.99,0.00,29.6,28.0,00.0,38.3,31.4,24.0,0000.0,0007.17,0003.27,0002.78
2022-10-02 16:14:00,,0830.2,4.99,0.00,29.6,28.0,00.0,38.3,31.4,24.1,0000.0,0007.03,0003.37,0002.89
2022-10-02 16:15:00,,0830.2,5.00,0.00,29.6,27.9,00.0,38.3,31.4,24.9,0000.0,0007.51,0003.52,0003.06
2022-10-02 16:16:00,,0830.2,5.01,0.00,29.5,27.9,00.0,38.3,31.4,25.3,0000.0,0008.51,0003.72,0003.24
2022-10-02 16:17:00,,0830.1,5.00,0.00,29.5,27.9,00.0,38.3,31.4,25.3,0000.0,0008.94,0003.96,0003.44
2022-10-02 16:18:00,,0830.1,4.99,0.00,29.5,27.9,00.0,38.3,31.4,25.8,0000.0,0009.19,0004.21,0003.72
2022-10-02 16:19:00,,0830.2,5.00,0.00,29.5,28.0,00.0,38.3,31.4,26.0,0000.0,0009.43,0004.54,0004.04
2022-10-02 16:20:00,,0830.2,5.00,0.00,29.5,28.0,00.0,38.3,31.4,26.3,-000.3,0009.83,0004.89,0004.35
2022-10-02 16:21:00,,0830.2,5.00,0.00,29.5,28.0,00.0,38.3,31.4,26.3,-001.2,0010.24,0005.16,0004.58
2022-10-02 16:22:00,,0830.2,4.98,0.00,29.5,27.9,00.0,38.3,31.4,26.4,-001.5,0010.58,0005.35,0004.73
2022-10-02 16:23:00,,0830.2,5.01,0.00,29.5,27.9,00.0,38.3,31.3,26.5,-002.1,0010.31,0005.53,0004.89
2022-10-02 16:24:00,,0830.2,5.00,0.00,29.5,27.9,00.0,38.3,31.3,26.6,-002.4,0010.37,0005.71,0005.07
2022-10-02 16:25:00,,0830.2,4.98,0.00,29.5,27.9,00.0,38.3,31.3,26.6,-002.5,0010.40,0005.84,0005.22
2022-10-02 16:26:00,,0830.1,5.00,0.00,29.5,27.8,00.0,38.3,31.3,26.8,-002.4,0010.44,0005.98,0005.37
2022-10-02 16:27:00,,0830.1,5.01,0.00,29.5,27.8,00.0,38.3,31.3,27.1,-002.3,0009.86,0006.10,0005.47
2022-10-02 16:28:00,,0830.1,5.00,0.00,29.5,27.8,00.0,38.3,31.3,27.0,-002.3,0010.41,0006.15,0005.54
2022-10-02 16:29:00,,0830.1,4.99,0.00,29.5,27.8,00.0,38.3,31.3,26.7,-002.4,0010.51,0006.14,0005.52
2022-10-02 16:30:00,,0830.1,5.00,0.00,29.5,27.8,00.0,38.3,31.3,26.6,-002.8,0010.47,0006.09,0005.48
2022-10-02 16:31:00,,0830.1,5.01,0.00,29.5,27.8,00.0,38.2,31.3,26.6,-003.0,0010.40,0006.01,0005.41
2022-10-02 16:32:00,,0830.2,4.99,0.00,29.5,27.9,00.0,38.2,31.3,26.6,-003.0,0010.25,0006.00,0005.43
2022-10-02 16:33:00,,0830.1,4.99,0.00,29.5,27.8,00.0,38.2,31.3,26.7,-003.0,0010.10,0006.01,0005.49
2022-10-02 16:34:00,,0830.1,5.01,0.00,29.4,27.8,00.0,38.3,31.2,26.7,-002.8,0010.01,0006.01,0005.50
2022-10-02 16:35:00,,0830.1,5.00,0.00,29.4,27.8,00.0,38.2,31.2,27.0,-002.7,0009.90,0005.98,0005.51
2022-10-02 16:36:00,,0830.1,4.98,0.00,29.4,27.8,00.0,38.2,31.2,27.1,-002.7,0010.02,0005.99,0005.52
2022-10-02 16:37:00,,0830.1,5.00,0.00,29.4,27.8,00.0,38.2,31.2,27.1,-003.1,0009.97,0005.94,0005.50
2022-10-02 16:38:00,,0830.1,5.01,0.00,29.4,27.8,00.0,38.2,31.2,27.8,-003.3,0009.84,0005.90,0005.49
2022-10-02 16:39:00,,0830.1,5.00,0.00,29.4,27.8,00.0,38.2,31.2,28.1,-003.4,0009.52,0005.91,0005.49
2022-10-02 16:40:00,,0830.2,4.99,0.00,29.4,27.8,00.0,38.2,31.2,27.7,-003.1,0009.59,0005.89,0005.47
2022-10-02 16:41:00,,0830.2,5.01,0.00,29.4,27.8,00.0,38.2,31.2,27.3,-002.5,0009.49,0005.83,0005.41
2022-10-02 16:42:00,,0830.2,5.01,0.00,29.4,27.7,00.0,38.2,31.2,27.1,-002.6,0009.45,0005.77,0005.37
2022-10-02 16:43:00,,0830.2,4.99,0.00,29.4,27.7,00.0,38.2,31.2,27.4,-002.3,0009.41,0005.74,0005.36
2022-10-02 16:44:00,,0830.2,5.00,0.00,29.4,27.6,00.0,38.2,31.2,27.3,-002.5,0009.35,0005.69,0005.33
2022-10-02 16:45:00,,0830.2,5.01,0.00,29.4,27.6,00.0,38.2,31.1,27.5,-002.2,0009.35,0005.67,0005.28
2022-10-02 16:46:00,,0830.2,5.00,0.00,29.3,27.5,00.0,38.2,31.1,27.5,-002.3,0009.45,0005.67,0005.23
2022-10-02 16:47:00,,0830.1,5.00,0.00,29.3,27.5,00.0,38.2,31.1,27.4,-002.5,0009.38,0005.61,0005.19
2022-10-02 16:48:00,,0830.1,4.99,0.00,29.3,27.5,00.0,38.2,31.1,27.8,-002.3,0009.20,0005.57,0005.15
2022-10-02 16:49:00,,0830.2,5.00,0.00,29.3,27.5,00.0,38.1,31.1,27.7,-002.4,0009.16,0005.53,0005.12
2022-10-02 16:50:00,,0830.1,5.01,0.00,29.3,27.5,00.0,38.1,31.1,27.6,-002.4,0008.93,0005.46,0005.06
2022-10-02 16:51:00,,0830.1,5.00,0.00,29.3,27.5,00.0,38.1,31.0,27.9,-002.4,0008.65,0005.44,0005.02
2022-10-02 16:52:00,,0830.1,4.99,0.00,29.3,27.5,00.0,38.1,31.0,27.8,-003.0,0008.71,0005.45,0004.98
2022-10-02 16:53:00,,0830.1,4.99,0.00,29.3,27.5,00.0,38.1,31.1,27.8,-003.1,0008.66,0005.45,0004.94
2022-10-02 16:54:00,,0830.1,5.00,0.00,29.2,27.5,00.0,38.1,31.0,27.6,-003.0,0008.70,0005.41,0004.89
2022-10-02 16:55:00,,0830.1,5.01,0.00,29.2,27.5,00.0,38.1,31.0,27.5,-002.9,0008.67,0005.36,0004.83
2022-10-02 16:56:00,,0830.1,4.99,0.00,29.2,27.6,00.0,38.1,31.0,27.5,-003.1,0008.64,0005.28,0004.77
2022-10-02 16:57:00,,0830.0,5.01,0.00,29.2,27.6,00.0,38.1,31.1,27.3,-000.2,0008.46,0005.19,0004.70
2022-10-02 16:58:00,,0830.0,5.00,0.00,29.2,27.7,00.0,38.0,31.1,26.9,0000.0,0008.34,0005.12,0004.62
2022-10-02 16:59:00,,0829.9,5.00,0.00,29.2,27.7,00.0,38.0,31.1,27.4,0000.0,0008.26,0005.05,0004.54
